Stations météo

réclame
Mon MeteoGroup
Capo Mele, Italie (16153): Température de l'air & dewpoint: 18.01.2018 10:00:00 - 24.01.2018 10:00:00 (CET)Capo Mele, Italie (16153): Vitesse du vent: 18.01.2018 10:00:00 - 24.01.2018 10:00:00 (CET)Capo Mele, Italie (16153): Direction du vent: 18.01.2018 10:00:00 - 24.01.2018 10:00:00 (CET)Capo Mele, Italie (16153): reduced air pressure: 18.01.2018 10:00:00 - 24.01.2018 10:00:00 (CET)Capo Mele, Italie (16153): visibility: 18.01.2018 10:00:00 - 24.01.2018 10:00:00 (CET)Capo Mele, Italie (16153): Ensoleillement: 18.01.2018 10:00:00 - 24.01.2018 10:00:00 (CET)
Date & Time tt [°C] td [°C] ff [km/h] ff [knt] dd ppp [hPa] vv [km] sd [min]
24.01.2018 10:00:00 12,8 5,7 15 8 NNE 1030,8 20 54
24.01.2018 09:00:00 10,5 2,4 9 5 NE 1030,3 20 12
24.01.2018 08:00:00 9,4 0,6 13 7 ENE 1030,1 20 -
24.01.2018 07:00:00 9,0 1,2 8 4 N 1029,9 30 -
24.01.2018 06:00:00 9,4 5,2 5 3 N 1029,2 30 -
24.01.2018 05:00:00 9,6 4,0 4 2 N 1029,0 35 -
24.01.2018 04:00:00 9,8 5,6 8 4 NNW 1028,9 35 -
24.01.2018 03:00:00 10,0 5,4 5 3 N 1028,6 35 -
24.01.2018 02:00:00 10,2 9,3 8 4 SW 1028,0 35 -
24.01.2018 01:00:00 10,0 9,4 5 3 SW 1027,9 35 -
24.01.2018 00:00:00 9,6 9,3 9 5 N 1027,2 35 -
23.01.2018 23:00:00 9,8 9,5 11 6 N 1027,0 35 -
23.01.2018 22:00:00 9,8 9,5 11 6 N 1026,7 35 -
23.01.2018 21:00:00 10,0 9,7 9 5 N 1026,3 35 -
23.01.2018 20:00:00 10,2 9,9 5 3 N 1025,6 30 -
23.01.2018 19:00:00 10,6 10,4 2 1 SSW 1024,1 30 -
23.01.2018 18:00:00 11,8 11,7 15 8 SSW 1022,9 25 -
23.01.2018 17:00:00 13,1 11,7 5 3 SSW 1022,3 30 60
23.01.2018 16:00:00 13,9 12,0 11 6 S 1021,5 30 60
23.01.2018 15:00:00 14,2 12,1 13 7 S 1021,0 30 60
23.01.2018 14:00:00 13,6 11,1 13 7 S 1021,4 30 60
23.01.2018 13:00:00 13,2 10,4 5 3 S 1021,1 30 60
23.01.2018 12:00:00 13,3 11,0 13 7 SSW 1021,1 30 60
23.01.2018 11:00:00 11,9 8,4 8 4 ENE 1020,3 40 60
23.01.2018 10:00:00 10,8 7,3 8 4 SSW 1019,4 30 54
23.01.2018 09:00:00 9,6 7,5 5 3 NNE 1019,0 30 6
23.01.2018 08:00:00 9,8 7,0 4 2 W 1018,3 30 -
23.01.2018 07:00:00 9,5 7,1 11 6 SSW 1017,2 30 -
23.01.2018 06:00:00 9,8 7,6 8 4 SSE 1016,8 30 -
23.01.2018 05:00:00 9,5 8,1 5 3 SSE 1016,7 30 -
23.01.2018 04:00:00 9,5 8,3 4 2 E 1016,0 30 -
23.01.2018 03:00:00 9,1 6,9 2 1 ENE 1015,8 30 -
23.01.2018 02:00:00 9,1 7,0 5 3 NNW 1015,7 30 -
23.01.2018 01:00:00 9,0 7,3 8 4 NW 1015,2 30 -
23.01.2018 00:00:00 8,9 7,4 15 8 N 1014,6 30 -
22.01.2018 23:00:00 8,5 7,4 15 8 N 1014,4 30 -
22.01.2018 22:00:00 8,5 7,1 16 9 N 1013,7 30 -
22.01.2018 21:00:00 8,8 7,1 18 10 N 1013,7 30 -
22.01.2018 20:00:00 9,0 6,4 16 9 N 1013,6 30 -
22.01.2018 19:00:00 9,8 7,4 13 7 N 1013,7 25 -
22.01.2018 18:00:00 10,0 6,4 5 3 ENE 1013,7 20 -
22.01.2018 17:00:00 11,2 6,9 13 7 S 1013,6 15 18
22.01.2018 16:00:00 11,2 6,5 4 2 SE 1014,5 15 12
22.01.2018 15:00:00 11,2 6,4 13 7 S 1015,2 25 0
22.01.2018 14:00:00 11,0 5,3 9 5 SSW 1015,5 25 0
22.01.2018 13:00:00 11,0 4,9 5 3 S 1015,7 25 0
22.01.2018 12:00:00 10,2 3,9 5 3 NNE 1016,4 25 0
22.01.2018 11:00:00 10,0 4,0 8 4 NNE 1015,8 25 0
22.01.2018 10:00:00 9,0 2,8 13 7 N 1014,5 25 0
22.01.2018 09:00:00 9,0 3,2 21 11 N 1013,6 25 0
22.01.2018 08:00:00 9,6 3,8 18 10 N 1013,5 35 -
22.01.2018 07:00:00 11,6 1,8 13 7 NNE 1012,0 40 -
22.01.2018 06:00:00 11,8 1,7 15 8 NNE 1012,0 40 -
22.01.2018 05:00:00 11,8 1,7 13 7 N 1012,2 40 -
22.01.2018 04:00:00 11,6 2,9 9 5 N 1012,2 40 -
22.01.2018 03:00:00 11,8 3,3 9 5 N 1012,3 20 -
22.01.2018 02:00:00 11,8 3,1 13 7 NNW 1012,3 40 -
22.01.2018 01:00:00 11,4 4,8 4 2 N 1012,5 40 -
22.01.2018 00:00:00 11,4 4,6 13 7 N 1012,5 40 -
21.01.2018 23:00:00 11,6 9,4 5 3 ENE 1012,3 40 -
21.01.2018 22:00:00 12,6 6,0 11 6 NNE 1011,3 40 -
21.01.2018 21:00:00 8,2 2,0 13 7 NE 1011,6 40 -
21.01.2018 20:00:00 13,4 5,8 9 5 N 1009,7 30 -
21.01.2018 19:00:00 13,3 5,5 16 9 N 1009,1 30 -
21.01.2018 18:00:00 13,8 7,1 9 5 WSW 1008,6 30 -
21.01.2018 17:00:00 13,8 7,8 15 8 WSW 1007,5 30 48
21.01.2018 16:00:00 13,0 8,7 9 5 SW 1007,1 30 60
21.01.2018 15:00:00 12,8 8,9 34 18 SSW 1007,0 30 60
21.01.2018 14:00:00 12,2 8,3 29 16 SW 1007,0 30 60
21.01.2018 13:00:00 12,3 8,4 28 15 SW 1006,0 30 60
21.01.2018 12:00:00 12,9 8,2 29 16 SW 1005,5 30 60
21.01.2018 11:00:00 11,3 7,2 26 14 SW 1005,3 25 60
21.01.2018 10:00:00 11,3 7,2 22 12 SW 1004,2 25 30
21.01.2018 09:00:00 10,0 6,2 22 12 SW 1003,3 25 0
21.01.2018 08:00:00 8,0 5,5 22 12 SSW 1003,3 25 54
21.01.2018 07:00:00 8,0 5,5 9 5 SSW 1002,0 20 -
21.01.2018 06:00:00 7,8 6,1 22 12 N 1001,8 20 -
21.01.2018 05:00:00 7,8 6,7 21 11 N 1001,5 20 -
21.01.2018 04:00:00 7,8 5,9 21 11 N 1002,0 20 -
21.01.2018 03:00:00 7,8 5,3 21 11 N 1002,4 20 -
21.01.2018 02:00:00 8,0 4,2 13 7 N 1003,2 20 -
21.01.2018 01:00:00 8,0 3,7 13 7 N 1004,4 20 -
21.01.2018 00:00:00 8,0 3,5 13 7 N 1004,8 20 -
20.01.2018 23:00:00 8,0 3,8 16 9 N 1005,5 20 -
20.01.2018 22:00:00 8,2 3,8 8 4 N 1006,6 20 -
20.01.2018 21:00:00 8,0 2,5 4 2 N 1006,7 30 -
20.01.2018 20:00:00 7,6 2,1 11 6 WNW 1007,4 40 -
20.01.2018 19:00:00 8,2 3,1 4 2 SW 1008,0 40 -
20.01.2018 18:00:00 8,8 3,6 15 8 SW 1008,4 40 -
20.01.2018 17:00:00 9,6 3,8 35 19 SSW 1008,4 40 6
20.01.2018 16:00:00 10,4 3,7 31 17 SSW 1009,6 40 54
20.01.2018 15:00:00 9,8 2,2 29 16 SSW 1010,2 40 0
20.01.2018 14:00:00 10,2 2,8 18 10 SW 1012,0 40 0
20.01.2018 13:00:00 10,2 2,3 18 10 SW 1012,7 50 36
20.01.2018 12:00:00 11,4 2,9 11 6 SW 1013,9 50 0
20.01.2018 11:00:00 10,8 0,0 9 5 ESE 1014,0 50 0
20.01.2018 10:00:00 10,4 -2,3 5 3 SSE 1013,5 40 30
20.01.2018 09:00:00 9,0 -7,2 9 5 WSW 1013,4 50 30
20.01.2018 08:00:00 7,9 -7,0 28 15 N 1013,1 50 0
20.01.2018 07:00:00 8,6 -5,6 28 15 N 1012,6 50 -
20.01.2018 06:00:00 9,4 -4,5 26 14 N 1012,1 50 -
20.01.2018 05:00:00 10,0 -4,7 15 8 N 1011,8 50 -
20.01.2018 04:00:00 10,0 0,3 15 8 N 1012,5 50 -
20.01.2018 03:00:00 9,1 4,5 16 9 N 1012,5 50 -
20.01.2018 02:00:00 9,2 3,2 9 5 SW 1012,0 50 -
20.01.2018 01:00:00 9,9 4,3 11 6 SW 1012,0 50 -
20.01.2018 00:00:00 10,5 3,1 4 2 WSW 1012,4 30 -
19.01.2018 23:00:00 10,0 5,0 5 3 W 1012,3 30 -
19.01.2018 22:00:00 10,0 6,4 15 8 SW 1012,2 30 -
19.01.2018 21:00:00 9,9 7,8 8 4 WSW 1011,4 30 -
19.01.2018 20:00:00 9,0 8,2 11 6 N 1011,1 20 -
19.01.2018 19:00:00 9,2 8,4 15 8 N 1010,7 20 -
19.01.2018 18:00:00 9,2 8,3 13 7 N 1009,6 20 -
19.01.2018 17:00:00 10,4 8,5 11 6 NNE 1009,4 20 24
19.01.2018 16:00:00 13,0 9,2 11 6 N 1008,6 20 60
19.01.2018 15:00:00 13,8 9,2 11 6 NNE 1008,8 30 60
19.01.2018 14:00:00 12,4 8,5 11 6 N 1009,1 30 60
19.01.2018 13:00:00 12,0 9,2 13 7 N 1009,1 30 24
19.01.2018 12:00:00 12,0 9,7 16 9 N 1009,1 30 12
19.01.2018 11:00:00 11,3 9,0 15 8 N 1009,0 25 0
19.01.2018 10:00:00 8,4 6,4 8 4 N 1008,4 25 0
19.01.2018 09:00:00 8,4 6,5 11 6 N 1008,4 25 0
19.01.2018 08:00:00 8,2 6,3 11 6 N 1008,4 25 0
19.01.2018 07:00:00 7,8 5,4 11 6 N 1008,5 25 -
19.01.2018 06:00:00 7,8 6,1 11 6 N 1009,5 35 -
19.01.2018 05:00:00 8,0 6,1 11 6 N 1009,5 35 -
19.01.2018 04:00:00 7,4 5,0 11 6 NNW 1008,7 35 -
19.01.2018 03:00:00 7,0 4,5 15 8 N 1008,8 35 -
19.01.2018 02:00:00 7,0 5,2 9 5 N 1009,7 35 -
19.01.2018 01:00:00 7,0 5,0 11 6 N 1009,7 35 -
19.01.2018 00:00:00 7,0 4,7 9 5 N 1011,7 35 -
18.01.2018 23:00:00 7,2 4,7 11 6 N 1011,6 35 -
18.01.2018 22:00:00 7,2 4,0 11 6 N 1011,6 35 -
18.01.2018 21:00:00 7,0 4,7 4 2 NNW 1011,8 35 -
18.01.2018 20:00:00 7,3 4,8 9 5 N 1012,2 40 -
18.01.2018 19:00:00 7,5 4,3 5 3 N 1012,4 40 -
18.01.2018 18:00:00 8,2 3,7 8 4 N 1013,0 30 -
18.01.2018 17:00:00 10,3 4,2 5 3 N 1012,7 30 60
18.01.2018 16:00:00 11,9 5,1 11 6 N 1013,0 30 60
18.01.2018 15:00:00 11,9 5,1 9 5 NNE 1013,3 30 60
18.01.2018 14:00:00 11,2 5,3 9 5 NNE 1014,0 30 60
18.01.2018 13:00:00 11,3 5,0 9 5 NE 1014,9 30 48
18.01.2018 12:00:00 10,1 3,8 4 2 SE 1015,9 30 6
18.01.2018 11:00:00 9,7 3,2 2 1 NNE 1016,2 30 24
18.01.2018 10:00:00 7,9 2,6 5 3 N 1016,3 30 18

tt = Température de l'air
td = dewpoint
ff = Vitesse du vent
dd = Direction du vent
ppp = reduced air pressure
vv = visibility
sd = Ensoleillement

stations d'obs. à proximité